Welcome to the New NWS' Forecast!
Most changes are behind the scenes, but click here for differences you might notice.

Regional Weather Roundup (RWR)

Issued by National Weather Service (NWS)

                            
210 
ASUS46 KSEW 180510
RWRWA 

WASHINGTON REGIONAL WEATHER ROUNDUP
NATIONAL WEATHER SERVICE SEATTLE WA
1000 PM PDT MON SEP 17 2018

NOTE:"FAIR" INDICATES FEW OR NO CLOUDS BELOW 12,000 FEET WITH NO 
SIGNIFICANT WEATHER AND/OR OBSTRUCTIONS TO VISIBILITY.

WAZ507-509-555>559-180600-
SEATTLE, TACOMA, EVERETT, AND VICINITY
  
CITY           SKY/WX    TMP DP  RH WIND       PRES   REMARKS
EVERETT        CLEAR     51  42  71 NW5       30.12S                  
BOEING FIELD   CLEAR     56  43  61 CALM      30.12R                  
RENTON         CLEAR     57  43  59 N7        30.11R                  
SEATAC AIRPORT CLEAR     56  43  61 N10       30.11S                  
JBLM-MCCHORD   NOT AVBL                                               
PUYALLUP       MOCLDY    50  48  93 CALM      30.11S                  
BREMERTON      CLEAR     53  41  63 NE10      30.11S                  
JBLM-FT LEWIS  NOT AVBL                                               
TACOMA NARROWS CLEAR     54  43  66 N8        30.11R                  
$$
 
WAZ001-503-506-510-514-515-180600-
NORTH INTERIOR
  
CITY           SKY/WX    TMP DP  RH WIND       PRES   REMARKS
BELLINGHAM     CLEAR     49  46  90 CALM      30.11S                  
FRIDAY HARBOR  CLEAR     47  42  83 CALM      30.13R                  
EASTSOUND      CLEAR     50  48  93 CALM      30.11S                  
PORT ANGELES   CLEAR     48  42  80 W6        30.14S                  
EDIZ HOOK      FAIR      51  44  77 SW7       30.14R                  
PORT TOWNSEND  FAIR      52  43  71 NW6       30.12S                  
NAS WHIDBEY    PTCLDY    54  48  80 CALM      30.16S                  
ARLINGTON      CLEAR     49  44  83 N3        30.13R                  
BURLINGTON     PTCLDY    48  46  93 CALM      30.12S                  
$$
 
WAZ020-022-039-040-504-511-512-180600-
SOUTHWEST INTERIOR
  
CITY           SKY/WX    TMP DP  RH WIND       PRES   REMARKS
SHELTON        CLEAR     49  45  86 CALM      30.09R                  
OLYMPIA        CLEAR     50  44  80 N3        30.11R                  
CHEHALIS       FAIR      50  50 100 CALM      30.11R                  
KELSO          CLEAR     53  48  83 CALM      30.10R                  
VANCOUVER      PTCLDY    59  48  67 NW6       30.06R                  
SCAPPOOSE, OR  CLEAR     56  47  71 NW8       30.07R                  
PORTLAND, OR   PTCLDY    60  47  61 W8        30.07R                  
$$
 
WAZ021-516-517-180600-
WASHINGTON COAST
  
CITY           SKY/WX    TMP DP  RH WIND       PRES   REMARKS
FORKS          CLEAR     44  41  89 CALM      30.14S                  
HOQUIAM        CLEAR     53  45  74 NW9       30.12R                  
ASTORIA, OR    CLEAR     56  48  74 N10       30.12R                  
$$
 
WAZ019-023-024-040-567>569-180600-
CASCADE MOUNTAINS AND COLUMBIA GORGE
  
CITY           SKY/WX    TMP DP  RH WIND       PRES   REMARKS
STAMPEDE PASS  CLOUDY    43  43 100 SW5       30.10S                  
TROUTDALE, OR  CLOUDY    61  46  57 W5        30.06R                  
HOOD RIVER, OR MOCLDY    54  46  76 CALM      30.04S                  
THE DALLES, OR MOCLDY    62  49  62 NW12      30.01R                  
$$

WAZ026-027-041>044-520-521-180600-
EAST SLOPES
  
CITY           SKY/WX    TMP DP  RH WIND       PRES   REMARKS
OMAK           CLEAR     53  34  48 NW8       30.03R                  
WENATCHEE      CLEAR     55  37  50 CALM      30.02R                  
ELLENSBURG     PTCLDY    54  43  66 NW9       30.04S                  
YAKIMA         PTCLDY    48  38  68 W7        30.04R                  
SUNNYSIDE ARPT MOCLDY    51  43  75 CALM      30.03R                  
YAKIMA TC      NOT AVBL                                               
$$

WAZ028-034-035-180600-
COLUMBIA BASIN
  
CITY           SKY/WX    TMP DP  RH WIND       PRES   REMARKS
EPHRATA        PTCLDY    47  31  53 CALM      30.02S                  
MOSES LAKE     PTCLDY    56  32  40 W6        30.02S                  
PASCO          MOCLDY    56  43  61 CALM      30.02R                  
RICHLAND ARPT  MOCLDY    55  43  64 CALM      30.02S                  
HERMISTON, OR  MOCLDY    54  40  59 S3        30.01S                  
$$

WAZ036>038-180600-
NORTHEAST WASHINGTON
  
CITY           SKY/WX    TMP DP  RH WIND       PRES   REMARKS
SPOKANE GEIGER MOCLDY    54  32  43 CALM      30.04S                  
SPOKANE FELTS  MOCLDY    52  35  52 CALM      30.04R                  
FAIRCHILD AFB  NOT AVBL                                               
COEURDALENE,ID MOCLDY    50  38  63 NE5       30.04S                  
DEER PARK      PTCLDY    42  34  73 CALM      30.04S                  
$$

WAZ029>033-180600-
SOUTHEAST WASHINGTON
  
CITY           SKY/WX    TMP DP  RH WIND       PRES   REMARKS
PULLMAN        MOCLDY    46  31  55 CALM      30.04F                  
LEWISTON, ID   MOCLDY    59  38  45 S6        30.00S                  
WALLA WALLA    PTCLDY    58  37  45 SE8       30.02R                  
PENDLETON, OR  MOCLDY    51  34  52 SE5       30.02S                  
$$
  


000
ASUS46 KSEW 180510
RWRWA 

WASHINGTON REGIONAL WEATHER ROUNDUP
NATIONAL WEATHER SERVICE SEATTLE WA
1000 PM PDT MON SEP 17 2018

NOTE:"FAIR" INDICATES FEW OR NO CLOUDS BELOW 12,000 FEET WITH NO 
SIGNIFICANT WEATHER AND/OR OBSTRUCTIONS TO VISIBILITY.

WAZ507-509-555>559-180600-
SEATTLE, TACOMA, EVERETT, AND VICINITY
  
CITY           SKY/WX    TMP DP  RH WIND       PRES   REMARKS
EVERETT        CLEAR     51  42  71 NW5       30.12S                  
BOEING FIELD   CLEAR     56  43  61 CALM      30.12R                  
RENTON         CLEAR     57  43  59 N7        30.11R                  
SEATAC AIRPORT CLEAR     56  43  61 N10       30.11S                  
JBLM-MCCHORD   NOT AVBL                                               
PUYALLUP       MOCLDY    50  48  93 CALM      30.11S                  
BREMERTON      CLEAR     53  41  63 NE10      30.11S                  
JBLM-FT LEWIS  NOT AVBL                                               
TACOMA NARROWS CLEAR     54  43  66 N8        30.11R                  
$$
 
WAZ001-503-506-510-514-515-180600-
NORTH INTERIOR
  
CITY           SKY/WX    TMP DP  RH WIND       PRES   REMARKS
BELLINGHAM     CLEAR     49  46  90 CALM      30.11S                  
FRIDAY HARBOR  CLEAR     47  42  83 CALM      30.13R                  
EASTSOUND      CLEAR     50  48  93 CALM      30.11S                  
PORT ANGELES   CLEAR     48  42  80 W6        30.14S                  
EDIZ HOOK      FAIR      51  44  77 SW7       30.14R                  
PORT TOWNSEND  FAIR      52  43  71 NW6       30.12S                  
NAS WHIDBEY    PTCLDY    54  48  80 CALM      30.16S                  
ARLINGTON      CLEAR     49  44  83 N3        30.13R                  
BURLINGTON     PTCLDY    48  46  93 CALM      30.12S                  
$$
 
WAZ020-022-039-040-504-511-512-180600-
SOUTHWEST INTERIOR
  
CITY           SKY/WX    TMP DP  RH WIND       PRES   REMARKS
SHELTON        CLEAR     49  45  86 CALM      30.09R                  
OLYMPIA        CLEAR     50  44  80 N3        30.11R                  
CHEHALIS       FAIR      50  50 100 CALM      30.11R                  
KELSO          CLEAR     53  48  83 CALM      30.10R                  
VANCOUVER      PTCLDY    59  48  67 NW6       30.06R                  
SCAPPOOSE, OR  CLEAR     56  47  71 NW8       30.07R                  
PORTLAND, OR   PTCLDY    60  47  61 W8        30.07R                  
$$
 
WAZ021-516-517-180600-
WASHINGTON COAST
  
CITY           SKY/WX    TMP DP  RH WIND       PRES   REMARKS
FORKS          CLEAR     44  41  89 CALM      30.14S                  
HOQUIAM        CLEAR     53  45  74 NW9       30.12R                  
ASTORIA, OR    CLEAR     56  48  74 N10       30.12R                  
$$
 
WAZ019-023-024-040-567>569-180600-
CASCADE MOUNTAINS AND COLUMBIA GORGE
  
CITY           SKY/WX    TMP DP  RH WIND       PRES   REMARKS
STAMPEDE PASS  CLOUDY    43  43 100 SW5       30.10S                  
TROUTDALE, OR  CLOUDY    61  46  57 W5        30.06R                  
HOOD RIVER, OR MOCLDY    54  46  76 CALM      30.04S                  
THE DALLES, OR MOCLDY    62  49  62 NW12      30.01R                  
$$

WAZ026-027-041>044-520-521-180600-
EAST SLOPES
  
CITY           SKY/WX    TMP DP  RH WIND       PRES   REMARKS
OMAK           CLEAR     53  34  48 NW8       30.03R                  
WENATCHEE      CLEAR     55  37  50 CALM      30.02R                  
ELLENSBURG     PTCLDY    54  43  66 NW9       30.04S                  
YAKIMA         PTCLDY    48  38  68 W7        30.04R                  
SUNNYSIDE ARPT MOCLDY    51  43  75 CALM      30.03R                  
YAKIMA TC      NOT AVBL                                               
$$

WAZ028-034-035-180600-
COLUMBIA BASIN
  
CITY           SKY/WX    TMP DP  RH WIND       PRES   REMARKS
EPHRATA        PTCLDY    47  31  53 CALM      30.02S                  
MOSES LAKE     PTCLDY    56  32  40 W6        30.02S                  
PASCO          MOCLDY    56  43  61 CALM      30.02R                  
RICHLAND ARPT  MOCLDY    55  43  64 CALM      30.02S                  
HERMISTON, OR  MOCLDY    54  40  59 S3        30.01S                  
$$

WAZ036>038-180600-
NORTHEAST WASHINGTON
  
CITY           SKY/WX    TMP DP  RH WIND       PRES   REMARKS
SPOKANE GEIGER MOCLDY    54  32  43 CALM      30.04S                  
SPOKANE FELTS  MOCLDY    52  35  52 CALM      30.04R                  
FAIRCHILD AFB  NOT AVBL                                               
COEURDALENE,ID MOCLDY    50  38  63 NE5       30.04S                  
DEER PARK      PTCLDY    42  34  73 CALM      30.04S                  
$$

WAZ029>033-180600-
SOUTHEAST WASHINGTON
  
CITY           SKY/WX    TMP DP  RH WIND       PRES   REMARKS
PULLMAN        MOCLDY    46  31  55 CALM      30.04F                  
LEWISTON, ID   MOCLDY    59  38  45 S6        30.00S                  
WALLA WALLA    PTCLDY    58  37  45 SE8       30.02R                  
PENDLETON, OR  MOCLDY    51  34  52 SE5       30.02S                  
$$